Regional Weather Roundup
Issued by NWS

Home | Current Version | Previous Version | Graphics & Text | Print | Product List | Glossary On
Versions: 1 2 3 4 5 6 7 8 9 10 11 12 13 14 15 16 17 18 19 20 21 22 23 24 25 26 27
000
ASUS45 KSLC 211810
RWRUT

UTAH REGIONAL WEATHER ROUNDUP
NATIONAL WEATHER SERVICE SALT LAKE CITY UT
1100 AM MST TUE NOV 21 2017

UTZ001>011-023>025-211900-

NORTHERN UTAH

CITY           SKY/WX    TMP DP  RH WIND       PRES   REMARKS
BRIGHAM CITY   MOSUNNY   52  35  53 SW6       30.35S
DUGWAY         PTSUNNY   52  30  43 N2        30.36R
6HR MIN TEMP:  37; 6HR MAX TEMP:  52;

HILL AFB       MOSUNNY   50  32  50 S8        30.36R
LOGAN          PTSUNNY   51  40  65 S5        30.34S
OGDEN          SUNNY     52  38  58 SW6       30.35R
SALT LAKE CITY PTSUNNY   51  38  60 CALM      30.36R
TOOELE VALLEY    N/A     50  36  57 CALM      30.37R
WENDOVER       MOSUNNY   47  31  53 W3        30.35F
HEBER CITY     CLOUDY    48  37  66 CALM      30.36S
WEST JORDAN    SUNNY     50  38  63 CALM      30.37S

$$

UTZ011>015-024>027-211900-

CENTRAL/NORTHEAST UTAH

CITY           SKY/WX    TMP DP  RH WIND       PRES   REMARKS
PROVO AIRPORT  MOSUNNY   52  33  48 SW7       30.38R
MOAB/CANYONLAN SUNNY     45  16  31 NW8       30.38R
DELTA          PTSUNNY   50  19  29 CALM      30.39R
PRICE          CLOUDY    42  18  37 W5        30.39R
ROOSEVELT      SUNNY     46  18  31 E3        30.37R
VERNAL         SUNNY     52  21  29 CALM      30.34R

$$

UTZ013>016-019>022-027-211900-

SOUTHERN UTAH

CITY           SKY/WX    TMP DP  RH WIND       PRES   REMARKS
BRYCE CANYON   SUNNY     56  30  37 N12       30.43R
CEDAR CITY     SUNNY     56  23  27 N5        30.36R
MILFORD        SUNNY     51  19  28 CALM      30.38R
ST GEORGE      CLEAR     52  11  19 S3        30.33S
HANKSVILLE     SUNNY     45  12  26 CALM      30.43R
BLANDING         N/A     57  17  20 S5        30.41R

$$

REGIONAL REPORTS     COLORADO/ARIZONA

CITY           SKY/WX    TMP DP  RH WIND       PRES   REMARKS
CRAIG, CO      CLOUDY    42  33  70 W3        30.35R
GRAND JUNCTION SUNNY     46  24  42 CALM      30.38S
RIFLE, CO      CLOUDY    43  30  60 CALM      30.40R
MONTROSE, CO   MOSUNNY   46  18  32 N6        30.40R
CORTEZ, CO     CLOUDY    62  31  31 N13G22    30.31S
COLORADO CITY    N/A     57  10  15 CALM      30.38R
PAGE, AZ       SUNNY     50  16  25 VRB6      30.35R
GRAND CANYON   SUNNY     64  30  27 NE9       30.38R
KINGMAN, AZ    SUNNY     64  15  15 N7        30.27S
FLAGSTAFF, AZ  SUNNY     60  23  24 E10       30.36R

$$

REGIONAL REPORTS    NEVADA/IDAHO/WYOMING

CITY           SKY/WX    TMP DP  RH WIND       PRES   REMARKS
LAS VEGAS, NV  PTSUNNY   63  14  15 E3        30.27R
ELY, NY        SUNNY     57  40  52 N10       30.40F
ELKO, NV       PTSUNNY   56  47  71 SW7       30.37R
POCATELLO, ID  CLOUDY    43  38  82 CALM      30.35R
BURLEY, ID     SUNNY     57  46  66 SW10      30.31R
FORT BRIDGER,  CLOUDY    45  38  77 W21       30.39S
EVANSTON, WY   CLOUDY    43  38  82 SW12      30.39R
ROCK SPRINGS,  CLOUDY    44  35  70 W23       30.33R
KEMMERER, WY   CLOUDY    37  34  87 CALM      30.37R

$$




USA.gov is the U.S. government's official web portal to all federal, state and local government web resources and services.